Regional Weather Roundup
Issued by NWS

Home | Current Version | Previous Version | Graphics & Text | Print | Product List | Glossary On
Versions: 1 2 3 4 5 6 7 8 9 10 11 12 13 14 15 16 17 18 19 20 21 22 23 24 25 26 27
000
ASUS45 KTFX 200410
RWRMT
MONTANA REGIONAL WEATHER ROUNDUP
NATIONAL WEATHER SERVICE GREAT FALLS MT
1000 PM MDT WED JUL 19 2017

NOTE: "FAIR" INDICATES FEW OR NO CLOUDS BELOW 12000 FEET WITH NO
SIGNIFICANT WEATHER AND/OR OBSTRUCTIONS TO VISIBILITY.

MTZ001>007-043-200500-
WEST OF THE DIVIDE

CITY           SKY/WX    TMP DP  RH WIND       PRES   REMARKS
KALISPELL      CLEAR     71  48  43 CALM      29.92R
MISSOULA       CLEAR     77  38  24 NW6       29.93R
BUTTE          CLEAR     73  39  29 VRB6      30.08R
MULLAN PASS    CLEAR     64  36  35 NW5       30.14S
ANACONDA         N/A     68  43  40 S5          N/A
DEER LODGE       N/A     72  43  35 CALM      30.05R
EUREKA           N/A     72  36  26 MISG      29.91S
HAMILTON         N/A     73  52  46 CALM      29.95R
LIBBY            N/A     73  41  31 CALM      29.91R
$$

MTZ008-052>055-200500-
SOUTHWEST MONTANA

CITY           SKY/WX    TMP DP  RH WIND       PRES   REMARKS
BOZEMAN        CLEAR     76  43  30 VRB7      29.99R
DILLON         CLEAR     66  44  45 NW8       30.00R
W YELLOWSTONE  CLEAR     61  36  39 CALM      30.20R
ENNIS          CLEAR     68  36  30 SE5       30.09R
THREE FORKS      N/A     76  50  40 CALM      29.98R
$$

MTZ009-010-012-014-046-048-049-054-200500-
EAST SLOPES AND CENTRAL MONTANA

CITY           SKY/WX    TMP DP  RH WIND       PRES   REMARKS
CUT BANK       CLEAR     67  35  30 NE9       30.00R
GREAT FALLS    CLEAR     78  30  17 E12       29.97R
HELENA         CLEAR     80  41  24 SW8       29.95R
CHOTEAU          N/A     68  32  26 NE10      30.02R
$$

MTZ011-013-016-021-045-047-050-051-200500-
NORTH CENTRAL MONTANA

CITY           SKY/WX    TMP DP  RH WIND       PRES   REMARKS
HAVRE          CLEAR     68  41  37 SE8       29.95R
LEWISTOWN      CLEAR     69  37  30 SE5       30.05R
N BAR RANCH      N/A     70  32  24 CALM      30.10R
CHINOOK          N/A     75  37  25 CALM      29.93R
$$

MTZ017>020-022>027-061-062-200500-
NORTHEAST MONTANA

CITY           SKY/WX    TMP DP  RH WIND       PRES   REMARKS
JORDAN           N/A     72  40  31 NW8       29.95R
SIDNEY         CLEAR     71  53  52 CALM      29.92R
WOLF POINT     CLEAR     79  44  28 E9        29.92R
MALTA          CLEAR     75  32  20 N10G17    29.92R
PLENTYWOOD       N/A     72  48  43 NE12      29.95S
POPLAR           N/A     77  46  33 NE14      29.91R
$$

MTZ028>42-056>058-200500-
SOUTHCENTRAL AND SOUTHEAST MONTANA

CITY           SKY/WX    TMP DP  RH WIND       PRES   REMARKS
BAKER          CLEAR     68  46  45 SE8       30.02R
BILLINGS       PTCLDY    83  40  21 SE7       29.99R
LIVINGSTON     CLEAR     79  42  26 SE16      30.01R
MILES CITY     CLEAR     81  39  22 SE8       29.96R
BIG TIMBER     CLEAR     75  41  29 CALM      30.05R
FORSYTH          N/A     79  39  24 CALM      29.95R
LAUREL           N/A     80  41  25 CALM      29.99R
$$

REGIONAL REPORTS...DAKOTAS

CITY           SKY/WX    TMP DP  RH WIND       PRES   REMARKS
WILLISTON      CLEAR     76  53  44 NE9       29.94R
MINOT          PTCLDY    70  60  70 E3        29.96R
DICKINSON      CLEAR     67  59  75 S8        29.99R
BEACH            N/A     66  57  72 S5        30.02R
CROSBY           N/A     61  55  82 E3        29.98R
TIOGA            N/A     66  55  68 E6        30.00R
WATFORD CITY     N/A     75  54  46 SE9       29.93R
BISMARCK       CLEAR     69  64  84 CALM      29.97R
GRAND FORKS    CLEAR     69  66  90 N8        29.90R
FARGO          CLEAR     73  68  84 S8        29.91R
BUFFALO SD       N/A     76  55  48 SE10      30.00R
RAPID CITY     MOCLDY    75  57  53 N9        30.05R
$$

REGIONAL REPORTS...WYOMING/IDAHO/WASHINGTON

CITY           SKY/WX    TMP DP  RH WIND       PRES   REMARKS
GILLETTE       PTCLDY    76  55  48 E5        30.11R
SHERIDAN       CLOUDY    67  55  65 S6        30.06R
BUFFALO WY     CLOUDY    73  45  36 W6        30.15R
CODY           CLEAR     72  42  34 CALM      30.12R
YELLOWSTONE LA   N/A     54  37  52 CALM      30.35R
IDAHO FALLS    CLEAR     64  56  75 N5        30.05R
BOISE          CLEAR     85  36  17 NE7       29.88R
SPOKANE        PTCLDY    81  40  23 S5        29.90F
$$

REGIONAL REPORTS...ALBERTA

CITY           SKY/WX    TMP DP  RH WIND       PRES   REMARKS
EDMONTON       CLEAR     64  50  59 SW6       29.90R
CALGARY        PTCLDY    68  50  52 SE7       29.95R SMOKE
LETHBRIDGE     CLEAR     63  46  55 SE8       29.93R
MEDICINE HAT   CLEAR     70  55  60 CALM      29.92R
WATERTON GATE    N/A     55  46  71 CALM        N/A
CARDSTON         N/A     66  45  45 CALM        N/A
MILK RIVER       N/A     61  43  51 E8          N/A
$$

REGIONAL REPORTS...SASKATCHEWAN

CITY           SKY/WX    TMP DP  RH WIND       PRES   REMARKS
SWIFT CURRENT  CLEAR     61  48  63 SE9       29.96R
REGINA         PTCLDY    66  50  55 E5        29.96R
SASKATOON      MOCLDY    64  54  68 S6        29.92R
CYPRESS HILLS    N/A     64  34  32 N2          N/A
ROCKGLEN         N/A     66  45  45 E3          N/A
ASSINIBOIA       N/A     59  55  88 SW6         N/A
$$




USA.gov is the U.S. government's official web portal to all federal, state and local government web resources and services.